• In Portugal
  • List of Countries
  • For 7 days
  • Water Temperature
  • Satellite Maps
  • Weather Map
  • Weather Widgets
  • user-avatar
    Login

    Hourly Weather Tuzla

    Today, 17 October, Tuesday

    Time Temperature Precipitation Wind Pressure Humidity
    00:00 +14°C° 0 mm 1 mps 729 mmHg 69%
    01:00 +14°C° 0 mm 1 mps 729 mmHg 68%
    02:00 +14°C° 0 mm 1 mps 729 mmHg 69%
    03:00 +14°C° 0 mm 1 mps 729 mmHg 69%
    04:00 +13°C° 0 mm 1 mps 729 mmHg 69%
    05:00 +14°C° 0 mm 1 mps 729 mmHg 68%
    06:00 +14°C° 0 mm 1 mps 729 mmHg 67%
    07:00 +14°C° 0 mm 1 mps 729 mmHg 67%
    08:00 +16°C° 0 mm 0 mps 729 mmHg 60%
    09:00 +19°C° 0 mm 0 mps 729 mmHg 52%
    10:00 +22°C° 0 mm 0 mps 729 mmHg 44%
    11:00 +23°C° 0 mm 0 mps 729 mmHg 42%
    12:00 +26°C° 0 mm 1 mps 729 mmHg 40%
    13:00 +26°C° 0 mm 1 mps 729 mmHg 40%
    14:00 +25°C° 0 mm 1 mps 728 mmHg 45%
    15:00 +24°C° 0 mm 1 mps 728 mmHg 49%
    16:00 +23°C° 0 mm 1 mps 727 mmHg 54%
    17:00 +21°C° 0 mm 1 mps 727 mmHg 59%
    18:00 +19°C° 0 mm 1 mps 727 mmHg 64%
    19:00 +16°C° 0 mm 1 mps 727 mmHg 69%
    20:00 +16°C° 0 mm 1 mps 727 mmHg 68%
    21:00 +15°C° 0 mm 1 mps 726 mmHg 68%
    22:00 +15°C° 0 mm 1 mps 726 mmHg 68%
    23:00 +15°C° 0 mm 1 mps 726 mmHg 66%

    Tomorrow, 18 October, Wednesday

    Time Temperature Precipitation Wind Pressure Humidity
    00:00 +15°C° 0 mm 1 mps 726 mmHg 64%
    01:00 +15°C° 0 mm 1 mps 726 mmHg 62%
    02:00 +14°C° 0 mm 1 mps 725 mmHg 61%
    03:00 +14°C° 0 mm 1 mps 725 mmHg 59%
    04:00 +14°C° 0 mm 1 mps 725 mmHg 57%
    05:00 +14°C° 0 mm 1 mps 725 mmHg 56%
    06:00 +14°C° 0 mm 1 mps 724 mmHg 56%
    07:00 +14°C° 0 mm 1 mps 724 mmHg 55%
    08:00 +18°C° 0 mm 1 mps 725 mmHg 48%
    09:00 +21°C° 0 mm 1 mps 725 mmHg 41%
    10:00 +24°C° 0 mm 1 mps 725 mmHg 34%
    11:00 +25°C° 0 mm 1 mps 725 mmHg 33%
    12:00 +26°C° 0 mm 1 mps 724 mmHg 31%
    13:00 +27°C° 0 mm 1 mps 724 mmHg 29%
    14:00 +26°C° 0 mm 1 mps 724 mmHg 35%
    15:00 +25°C° 0 mm 1 mps 723 mmHg 40%
    16:00 +23°C° 0 mm 1 mps 723 mmHg 45%
    17:00 +21°C° 0 mm 1 mps 723 mmHg 50%
    18:00 +19°C° 0 mm 1 mps 723 mmHg 54%
    19:00 +16°C° 0 mm 1 mps 723 mmHg 59%
    20:00 +16°C° 0 mm 1 mps 723 mmHg 61%
    21:00 +15°C° 0 mm 1 mps 723 mmHg 63%
    22:00 +15°C° 0 mm 1 mps 723 mmHg 64%
    23:00 +14°C° 0 mm 1 mps 723 mmHg 66%

    Day after tomorrow, 19 October, Thursday

    Time Temperature Precipitation Wind Pressure Humidity
    00:00 +14°C° 0 mm 1 mps 723 mmHg 67%
    01:00 +14°C° 0 mm 1 mps 723 mmHg 68%
    02:00 +13°C° 0 mm 1 mps 722 mmHg 69%
    03:00 +13°C° 0 mm 1 mps 722 mmHg 70%
    04:00 +12°C° 0 mm 1 mps 722 mmHg 70%
    05:00 +13°C° 0 mm 1 mps 722 mmHg 70%
    06:00 +13°C° 0 mm 1 mps 722 mmHg 70%
    07:00 +13°C° 0 mm 1 mps 722 mmHg 69%
    08:00 +16°C° 0 mm 1 mps 723 mmHg 59%
    09:00 +20°C° 0 mm 1 mps 723 mmHg 50%
    10:00 +23°C° 0 mm 1 mps 723 mmHg 40%
    11:00 +24°C° 0 mm 1 mps 723 mmHg 37%
    12:00 +25°C° 0 mm 1 mps 723 mmHg 33%
    13:00 +26°C° 0 mm 1 mps 723 mmHg 30%
    14:00 +24°C° 0 mm 1 mps 722 mmHg 35%
    15:00 +23°C° 0 mm 1 mps 722 mmHg 39%
    16:00 +22°C° 0 mm 1 mps 722 mmHg 44%
    17:00 +20°C° 0 mm 1 mps 722 mmHg 49%
    18:00 +18°C° 0 mm 1 mps 722 mmHg 54%
    19:00 +15°C° 0 mm 1 mps 722 mmHg 59%
    20:00 +14°C° 0 mm 1 mps 722 mmHg 62%
    21:00 +14°C° 0 mm 1 mps 722 mmHg 64%
    22:00 +13°C° 0 mm 1 mps 722 mmHg 67%
    23:00 +13°C° 0 mm 1 mps 722 mmHg 68%

    20 October, Friday

    Time Temperature Precipitation Wind Pressure Humidity
    00:00 +13°C° 0 mm 1 mps 722 mmHg 70%
    01:00 +12°C° 0 mm 1 mps 722 mmHg 72%
    02:00 +12°C° 0 mm 1 mps 722 mmHg 74%
    03:00 +12°C° 0 mm 1 mps 722 mmHg 75%
    04:00 +11°C° 0 mm 1 mps 722 mmHg 76%
    05:00 +12°C° 0 mm 1 mps 722 mmHg 75%
    06:00 +12°C° 0 mm 1 mps 722 mmHg 74%
    07:00 +12°C° 0 mm 1 mps 722 mmHg 73%
    08:00 +15°C° 0 mm 1 mps 723 mmHg 62%
    09:00 +19°C° 0 mm 1 mps 723 mmHg 52%
    10:00 +22°C° 0 mm 1 mps 724 mmHg 41%
    11:00 +23°C° 0 mm 1 mps 723 mmHg 38%
    12:00 +24°C° 0 mm 1 mps 723 mmHg 35%
    13:00 +25°C° 0 mm 1 mps 723 mmHg 33%
    14:00 +23°C° 0 mm 1 mps 723 mmHg 37%
    15:00 +22°C° 0 mm 1 mps 723 mmHg 42%
    16:00 +21°C° 0 mm 1 mps 723 mmHg 47%
    17:00 +19°C° 0 mm 1 mps 723 mmHg 52%
    18:00 +15°C° 0 mm 0 mps 723 mmHg 58%
    19:00 +13°C° 0 mm 0 mps 723 mmHg 64%
    20:00 +13°C° 0 mm 0 mps 723 mmHg 65%
    21:00 +13°C° 0 mm 1 mps 724 mmHg 67%
    22:00 +13°C° 0 mm 1 mps 724 mmHg 69%
    23:00 +13°C° 0 mm 1 mps 724 mmHg 70%

    21 October, Saturday

    Time Temperature Precipitation Wind Pressure Humidity
    00:00 +12°C° 0 mm 1 mps 724 mmHg 71%
    01:00 +12°C° 0 mm 1 mps 724 mmHg 71%
    02:00 +12°C° 0 mm 1 mps 724 mmHg 72%
    03:00 +11°C° 0 mm 1 mps 724 mmHg 72%
    04:00 +11°C° 0 mm 1 mps 723 mmHg 73%
    05:00 +11°C° 0 mm 1 mps 724 mmHg 72%
    06:00 +12°C° 0 mm 1 mps 724 mmHg 71%
    07:00 +12°C° 0 mm 1 mps 724 mmHg 70%
    08:00 +15°C° 0 mm 1 mps 724 mmHg 61%
    09:00 +17°C° 0 mm 0 mps 725 mmHg 52%
    10:00 +20°C° 0 mm 0 mps 725 mmHg 44%
    11:00 +21°C° 0 mm 0 mps 725 mmHg 41%
    12:00 +22°C° 0 mm 0 mps 724 mmHg 39%
    13:00 +22°C° 0 mm 0 mps 724 mmHg 36%
    14:00 +23°C° 0 mm 1 mps 724 mmHg 41%
    15:00 +22°C° 0 mm 1 mps 724 mmHg 45%
    16:00 +21°C° 0 mm 1 mps 723 mmHg 49%
    17:00 +19°C° 0 mm 1 mps 723 mmHg 55%
    18:00 +15°C° 0 mm 0 mps 723 mmHg 61%
    19:00 +13°C° 0 mm 0 mps 723 mmHg 66%
    20:00 +14°C° 0 mm 1 mps 723 mmHg 68%
    21:00 +13°C° 0 mm 1 mps 724 mmHg 69%
    22:00 +13°C° 0 mm 1 mps 724 mmHg 70%
    23:00 +13°C° 0 mm 1 mps 723 mmHg 71%

    22 October, Sunday

    Time Temperature Precipitation Wind Pressure Humidity
    00:00 +12°C° 0 mm 1 mps 723 mmHg 71%
    01:00 +12°C° 0 mm 1 mps 723 mmHg 71%
    02:00 +12°C° 0 mm 1 mps 723 mmHg 71%
    03:00 +12°C° 0 mm 1 mps 723 mmHg 71%
    04:00 +11°C° 0 mm 1 mps 723 mmHg 71%
    05:00 +11°C° 0 mm 1 mps 723 mmHg 69%
    06:00 +12°C° 0 mm 1 mps 723 mmHg 68%
    07:00 +12°C° 0 mm 1 mps 722 mmHg 67%
    08:00 +15°C° 0 mm 1 mps 723 mmHg 58%
    09:00 +19°C° 0 mm 1 mps 723 mmHg 49%
    10:00 +22°C° 0 mm 1 mps 723 mmHg 40%
    11:00 +22°C° 0 mm 1 mps 723 mmHg 37%
    12:00 +23°C° 0 mm 1 mps 722 mmHg 34%
    13:00 +24°C° 0 mm 1 mps 722 mmHg 31%
    14:00 +23°C° 0 mm 1 mps 721 mmHg 36%
    15:00 +22°C° 0 mm 1 mps 721 mmHg 40%
    16:00 +21°C° 0 mm 1 mps 721 mmHg 45%
    17:00 +19°C° 0 mm 1 mps 720 mmHg 48%
    18:00 +16°C° 0 mm 1 mps 720 mmHg 51%
    19:00 +15°C° 0 mm 1 mps 720 mmHg 54%
    20:00 +15°C° 0 mm 1 mps 720 mmHg 54%
    21:00 +14°C° 0 mm 1 mps 720 mmHg 54%
    22:00 +14°C° 0 mm 1 mps 720 mmHg 54%
    23:00 +14°C° 0 mm 1 mps 721 mmHg 56%
    Show more